#timestamp,LO_Frequency,Hit,StdDev 
1620762455.8,286047043.1,P
1620762475.6,286047043.7,P
1620762495.5,286047043.6,P
1620762515.3,286047045.0,Y
1620762535.1,286047003.9,P
1620762555.9,286047003.4,N
1620762575.7,286047003.8,N
1620762595.6,286047005.8,N
1620762615.4,286047003.2,N
1620762635.2,286047005.3,N
1620762655.1,286047003.0,N
1620762656.0,286047003.0,N
1620762675.8,286047003.4,N
1620762695.6,286047005.6,N
1620762715.5,286047004.8,N
1620762735.3,286047005.1,N
1620762755.2,286047007.1,N
1620762775.9,286047004.5,N
1620762795.7,286047007.0,N
1620762815.6,286047004.9,N
1620762835.4,286047007.0,N
1620762855.2,286047007.1,N
1620762875.1,286047005.0,N
1620762876.0,286047005.0,N
1620762895.8,286047004.8,N
1620762915.7,286047005.3,N
1620762935.5,286047005.2,N
1620762955.3,286047007.2,N
1620762975.2,286047006.7,N
1620762995.0,286047009.2,N
1620762995.9,286047009.2,N
1620763015.7,286047006.2,N
1620763035.6,286047008.5,N
1620763055.4,286047008.7,N
1620763075.3,286047008.5,Y
1620763095.1,286047002.2,P
1620763115.8,286047003.5,N
1620763135.7,286047003.6,N
1620763155.5,286047003.7,N
1620763175.4,286047003.1,N
1620763195.2,286047005.1,Y
